#timestamp,LO_Frequency,Hit,StdDev 
1673931615.8,286046998.2,N
1673931635.7,286046997.8,N
1673931655.5,286046995.2,N
1673931675.3,286046997.3,N
1673931695.2,286046999.3,N
1673931715.0,286047000.9,N
1673931715.9,286047000.9,N
1673931735.8,286046999.0,N
1673931755.6,286046998.7,N
1673931775.4,286046998.1,N
1673931825.3,286046997.8,E
1673931835.2,286046996.7,N
1673931855.1,286046996.8,P
1673931856.0,286046996.8,P
1673931875.8,286046997.3,Y
1673931895.7,286047003.9,P
1673931915.5,286047002.2,N
1673931935.3,286047001.3,N
1673931955.2,286047005.5,N
1673931975.9,286047003.8,N
1673931995.7,286047005.0,N
1673932015.6,286047005.4,N
1673932035.4,286047005.2,N
1673932055.3,286047004.5,N
1673932075.1,286047003.0,N
1673932076.0,286047003.0,N
1673932095.8,286047003.7,N
1673932115.7,286047003.7,N
1673932135.5,286047003.5,N
1673932155.3,286047003.7,N
1673932175.2,286047005.0,N
1673932195.0,286047002.9,N
1673932195.9,286047002.9,N
1673932215.8,286047005.9,Y
1673932235.6,286046999.9,P
1673932255.4,286047000.2,N
1673932275.3,286047000.4,N
1673932295.1,286047000.8,N
1673932315.8,286047000.7,N
1673932335.7,286047000.5,N
1673932355.5,286046998.1,N
1673932375.4,286046998.5,N
1673932395.2,286046998.1,N
1673932415.0,286047000.3,N
1673932415.9,286047000.3,N
1673932435.8,286047002.3,N
1673932455.6,286047003.4,N
1673932475.4,286047004.1,N
1673932495.3,286047006.0,Y
1673932515.1,286047004.3,P
1673932535.9,286047001.4,N
1673932555.7,286047004.0,N
1673932575.5,286047003.2,N
1673932595.4,286047001.3,N
1673932615.2,286047001.7,N
1673932635.1,286047005.9,Y
1673932636.0,286047005.9,P
1673932655.8,286047002.3,N
1673932675.6,286047002.5,N
1673932695.5,286047001.3,N
1673932715.3,286047002.2,N
1673932735.1,286047002.2,N
1673932755.9,286047004.1,N
1673932775.7,286047003.3,N
1673932795.6,286047004.0,Y
1673932815.4,286046999.6,P
1673932835.2,286046999.6,N
1673932855.1,286046995.4,N
1673932856.0,286046995.4,N
1673932875.8,286046996.5,N
1673932895.6,286046999.6,N
1673932915.5,286046996.5,N
1673932935.3,286046997.6,N
1673932955.2,286046996.7,N
1673932975.9,286046999.2,N
1673932995.7,286046995.5,N
1673933015.6,286046995.2,N
1673933035.4,286046997.8,N
1673933055.3,286046995.2,N
1673933075.1,286046996.2,N
1673933076.0,286046996.2,N
1673933095.8,286046995.2,N
1673933115.7,286046995.3,N
1673933135.5,286046997.5,N
1673933155.3,286046999.4,N
1673933175.2,286047001.0,N
1673933195.0,286046999.2,N
1673933195.9,286046999.2,N
1673933215.8,286047000.8,N
1673933235.6,286047001.0,N
1673933255.4,286047000.4,N
1673933275.3,286046999.7,N
1673933295.1,286047002.8,N
1673933315.8,286047001.8,N
1673933335.7,286047000.4,N
1673933355.5,286046996.7,N
1673933375.3,286046998.7,N
1673933395.2,286046998.3,N
1673933415.0,286046999.5,N
1673933415.9,286046999.5,N
1673933435.8,286046995.4,N
1673933455.6,286046995.7,N
1673933475.4,286046995.5,N
1673933495.3,286046997.5,N
1673933515.1,286046997.7,N
1673933535.8,286046996.7,N
1673933555.7,286046997.1,N
1673933575.5,286046995.5,N
1673933595.4,286046994.9,N
1673933615.2,286046996.4,N
1673933635.0,286046991.7,Y
1673933635.9,286046991.7,P
1673933655.8,286046996.1,N
1673933675.6,286046996.3,N
1673933695.5,286046993.8,N
1673933715.3,286046996.3,N
1673933735.1,286046996.4,N
1673933755.9,286046993.4,Y
1673933775.7,286046999.6,P
1673933795.6,286047000.7,N
1673933815.4,286047002.1,N
1673933835.2,286047000.3,N
1673933855.1,286047004.4,N
1673933856.0,286047004.4,N
1673933875.8,286046999.7,N
1673933895.6,286046999.9,N
1673933915.5,286047001.7,N
1673933935.3,286047003.6,N
1673933955.2,286046999.7,N
1673933975.9,286047003.0,N
1673933995.7,286047003.4,N
1673934015.6,286047004.7,N
1673934035.4,286047002.9,N
1673934055.2,286047004.4,N
1673934075.1,286047001.6,N
1673934076.0,286047001.6,N
1673934095.8,286047004.4,N
1673934115.7,286047005.7,N
1673934135.5,286047005.4,N
1673934155.5,286047006.4,N
1673934175.3,286047007.1,N
1673934195.2,286047004.5,N
1673934215.0,286047004.8,N
1673934215.9,286047004.8,N
1673934235.8,286047007.6,N
1673934255.6,286047007.4,N
1673934275.4,286047007.0,N
1673934295.3,286047001.7,N
1673934315.1,286047003.3,N
1673934335.8,286047003.7,N
1673934355.7,286047003.6,N
1673934375.5,286047003.8,N
1673934395.4,286047004.2,N
1673934415.2,286047003.7,N
1673934435.0,286047005.7,N
1673934435.9,286047005.7,N
1673934455.8,286047004.5,N
1673934475.6,286047004.2,N
1673934495.5,286047005.5,Y
1673934515.3,286047000.9,P
1673934535.1,286046999.0,N
1673934555.9,286046999.4,N
1673934575.7,286047000.7,N
1673934595.5,286047000.9,N
1673934615.4,286047000.7,N
1673934635.2,286046997.3,N
1673934655.1,286046995.3,N
1673934656.0,286046995.3,N
1673934675.8,286046996.6,N
1673934695.6,286046996.8,N
1673934715.5,286046998.0,N
1673934735.3,286046996.1,N
1673934755.1,286046997.2,N
1673934775.9,286046999.5,N
1673934795.7,286046995.0,N
1673934815.6,286046995.9,N
1673934835.4,286046997.9,N
1673934855.2,286047000.8,N
1673934875.1,286046997.2,N
1673934876.0,286046997.2,N
1673934895.8,286046994.9,N
1673934915.6,286046995.1,N
1673934935.5,286046995.5,N
1673934955.3,286046999.1,N
1673934975.2,286047000.9,N
1673934995.9,286046996.9,N
1673935015.7,286046996.8,N
1673935035.6,286046999.2,N
1673935055.4,286047001.1,N
1673935075.2,286047000.3,N
1673935095.1,286047001.0,N
1673935096.0,286047001.0,N
1673935115.8,286046997.4,N
1673935135.7,286046996.8,N
1673935155.5,286046998.3,N
1673935175.3,286046998.8,N
1673935195.2,286046998.1,N
